STARLINK-11397 [DTC] (62590 NORAD) Tracking and Keplerian Element Data

This shows tracking and keplerian element data for the satellite.

Feedback or suggestion? Click here.




ElementValue
Catalog62590
NameSTARLINK-11397 [DTC]
Epoch Orbit447
Epoch Day34.92304094
Epoch Year2025
RAAN12.047
Inclination42.9994
Eccentricity9.96E-05
Argument of Perigee262.5424
Mean Anonmoly97.5333
Mean Motion15.77861205
Decay Rate4.05E-05
L11 62590U 25008D 25034.92304094 .00004050 00000+0 26116-4 0 9990
L22 62590 42.9994 12.0470 0000996 262.5424 97.5333 15.77861205 4471



Live tracking and technical data element details for STARLINK-11397 [DTC] (NORAD 62590). STARLINK-11397 [DTC] can be tracked NOW for your location showing map with azimuth and elevation plus other details from your city location.







IsCatalogInMostPopularTable: catalog: 62590, numindb: 18
Update: records affected: 1



GetName: 62590 STARLINK-11397 [DTC]

Hit Count: updated at: Sun, 18 May 2025 23:25:16 GMT